Printer-friendly version

IAU Minor Planet Center

Minor Planet Center

MPEC 2001-F32: 2001 FO32

The following Minor Planet Electronic Circular may be linked-to from your own Web pages, but must not otherwise be redistributed electronically.


Read MPEC 2001-F31 Read MPEC 2001-F33


M.P.E.C. 2001-F32                                Issued 2001 Mar. 24, 22:08 UT

     The Minor Planet Electronic Circulars contain information on unusual
         minor planets and routine data on comets.  They are published
   on behalf of Commission 20 of the International Astronomical Union by the
          Minor Planet Center, Smithsonian Astrophysical Observatory,
                          Cambridge, MA 02138, U.S.A.

             Prepared using the Tamkin Foundation Computer Network

                              MPC@CFA.HARVARD.EDU
          URL http://cfa-www.harvard.edu/iau/mpc.html  ISSN 1523-6714

                                   2001 FO32

Observations:
     K01F32O* C2001 03 23.18068 09 09 08.37 -10 05 12.3          15.6        704
     K01F32O  C2001 03 23.19310 09 08 57.23 -10 03 11.4          15.2        704
     K01F32O  C2001 03 23.20530 09 08 46.31 -10 01 12.9          15.6        704
     K01F32O  C2001 03 23.21748 09 08 35.38 -09 59 13.7          15.4        704
     K01F32O  C2001 03 23.22970 09 08 24.41 -09 57 14.4          16.0        704
     K01F32O  C2001 03 23.95296 08 57 30.33 -07 54 58.8          15.5 R      952
     K01F32O  C2001 03 23.95358 08 57 29.76 -07 54 52.2          15.5 R      952
     K01F32O  C2001 03 23.95477 08 57 28.67 -07 54 39.5                      952
     K01F32O  C2001 03 23.95535 08 57 28.08 -07 54 33.6                      952
     K01F32O  C2001 03 23.98806 08 56 57.36 -07 48 48.0          14.7 R      946
     K01F32O  C2001 03 23.98884 08 56 56.71 -07 48 41.0                      946
     K01F32O  C2001 03 23.98973 08 56 55.90 -07 48 30.5                      946
     K01F32O  C2001 03 24.15452 08 54 24.19 -07 19 13.4          15.4        854
     K01F32O  C2001 03 24.15534 08 54 23.45 -07 19 04.0          15.5        854
     K01F32O  C2001 03 24.15618 08 54 22.62 -07 18 56.2          15.4        854
     K01F32O  C2001 03 24.56585 08 47 51.01 -06 03 27.1          16.0 R      428
     K01F32O  C2001 03 24.56682 08 47 50.05 -06 03 16.6          16.2 R      428
     K01F32O  C2001 03 24.56787 08 47 49.04 -06 03 04.8          16.1 R      428
     K01F32O  C2001 03 24.56888 08 47 48.06 -06 02 53.3          16.1 R      428
     K01F32O  C2001 03 24.56981 08 47 47.22 -06 02 43.4          16.0 R      428
     K01F32O  C2001 03 24.83425 08 43 33.13 -05 13 58.1          15.6 R      946
     K01F32O  C2001 03 24.83650 08 43 30.89 -05 13 32.6          16.0 R      946
     K01F32O  C2001 03 24.83759 08 43 29.79 -05 13 20.2                      946
     K01F32O  C2001 03 24.83906 08 43 28.32 -05 13 03.3                      946

Observer details:
428 Reedy Creek.  Observer J. Broughton.  0.25-m f/6.3 Schmidt-Cassegrain
    + CCD.
704 Lincoln Laboratory ETS, New Mexico.  Observers M. Blythe, F. Shelly,
    M. Bezpalko, R. Huber, L. Manguso, S. Adams.  Measurers J. Stuart,
    R. Sayer, J. B. Evans, H. Viggh.  1.0-m f/2.15 reflector + CCD.
854 Sabino Canyon Observatory, Tucson.  Observer J. E. McGaha.  0.30-m f/6.1
    Schmidt-Cassegrain + CCD.
946 Ametlla de Mar.  Observer J. Nomen.  0.40-m f/2.0 Schmidt + CCD.
952 Marxuquera.  Observer J. J. Gomez.  0.25-m f/3.3 Schmidt-Cassegrain + CCD.

Orbital elements:
2001 FO32                                                            PHA 0.010
Epoch 2001 Mar. 12.0 TT = JDT 2451980.5                 Spahr
M 332.95718              (2000.0)            P               Q
n   0.43065370     Peri.  122.99902     +0.56754006     +0.82303229
a   1.7366698      Node   182.05486     -0.78838705     +0.55119072
e   0.8312362      Incl.   39.31594     +0.23736920     -0.13713727
P   2.29           H   17.6           G   0.15
From 24 observations 2001 Mar. 23-24.

Ephemeris:
2001 FO32                a,e,i = 1.74, 0.83, 39                  q = 0.2931
Date    TT    R. A. (2000) Decl.     Delta      r     Elong.  Phase     V
2001 03 12    10 57.80   -26 03.3    0.343    1.301   149.6    22.7    16.9
2001 03 22    09 25.73   -13 03.8    0.205    1.158   138.6    34.7    15.9
2001 04 01    06 31.43   +19 37.9    0.175    1.003    86.1    83.8    16.8
2001 04 11    04 02.47   +35 29.4    0.280    0.834    46.3   119.7    19.3

Timothy B. Spahr             (C) Copyright 2001 MPC           M.P.E.C. 2001-F32

Read MPEC 2001-F31 Read MPEC 2001-F33


Our Web policy. Index to the CBAT/MPC/ICQ pages.


Valid HTML 4.01!